[[{"header":{"parameterUnit":"m.s-1","parameterCategory":1,"la1":30.2991,"la2":30.254,"lo1":-89.0895,"lo2":-89.0444,"dy":0.0017,"dx":0.0017,"nx":28,"ny":28,"refTime":"2023-10-08T09:00:00:Z","depth":0,"parameterNumber":2,"parameterNumberName":"U-component_of_WINDS"},"data":[0,0,0,0,0,0,0,0,0,0,0,0,0,0,0,0,0,0,0,0,0,0,0,0,0,0,0,0,0,0,0,0,0,0,0,0,0,0,0,0,0,0,0,0,0,0,0,0,0,0,0,0,0,0,0,0,0,0,-0.6067,-0.6068,0,-0.6184,-0.6185,-0.6187,-0.6261,-0.6261,-0.6262,-0.6262,-0.6381,-0.6384,-0.6387,0,0,0,0,0,0,0,0,0,0,0,0,0,-0.5907,-0.5909,-0.6067,-0.6068,-0.6069,-0.6184,-0.6185,-0.6187,-0.6261,-0.6261,-0.6262,-0.6262,-0.6381,-0.6384,-0.6387,0,0,0,0,0,0,0,0,0,0,0,0,0,-0.5995,-0.591,-0.6066,-0.612,-0.6126,-0.6183,-0.6185,-0.6187,-0.6261,-0.6261,-0.6262,-0.6262,-0.6379,-0.6383,-0.6388,-0.64,0,0,-0.64,-0.6402,0,0,0,0,0,0,0,0,-0.599,-0.6001,-0.6111,-0.6116,-0.6123,-0.6208,-0.6173,-0.6259,-0.626,-0.6209,-0.6262,-0.6263,-0.6323,-0.6332,-0.6353,-0.6406,-0.6411,-0.6401,-0.6403,-0.6405,-0.6406,0,0,0,0,0,0,0,-0.5984,-0.5996,-0.6113,-0.6112,-0.612,-0.6138,-0.6152,-0.6189,-0.6261,-0.6214,-0.622,-0.6232,-0.6327,-0.6348,-0.6356,-0.6413,-0.6401,-0.6404,-0.6407,-0.6408,-0.6484,-0.6483,0,0,0,0,0,0,-0.5969,-0.5991,-0.6109,-0.6117,-0.6057,-0.6141,-0.6156,-0.618,-0.6261,-0.6274,-0.6232,-0.6235,-0.6341,-0.6351,-0.636,-0.6381,-0.6405,-0.6409,-0.6411,-0.6484,-0.6484,-0.6483,0,0,0,0,0,0,-0.5965,-0.5979,-0.6105,-0.6055,-0.6073,-0.6143,-0.617,-0.6182,-0.6204,-0.6275,-0.6288,-0.6241,-0.6342,-0.6355,-0.639,-0.6386,-0.6411,-0.6415,-0.6485,-0.6484,-0.6483,-0.6422,0,0,0,0,0,0,-0.5961,-0.5977,-0.5983,-0.6055,-0.6075,-0.6132,-0.617,-0.6184,-0.6211,-0.6217,-0.6286,-0.6299,-0.6343,-0.6384,-0.6394,-0.6393,-0.6418,-0.6485,-0.6484,-0.6483,-0.6425,-0.642,-0.6415,0,0,0,0,0,-0.5955,-0.5961,-0.5983,-0.5997,-0.6083,-0.6132,-0.6143,-0.6195,-0.621,-0.6217,-0.6262,-0.6296,-0.6385,-0.6387,-0.6399,-0.6399,-0.6486,-0.6485,-0.6484,-0.6427,-0.6421,-0.6415,0,0,0,0,0,0,-0.5886,-0.5971,-0.5996,-0.6026,-0.6071,-0.6144,-0.6153,-0.6186,-0.6227,-0.6231,-0.6294,-0.6309,-0.6338,-0.6372,-0.6372,-0.6416,-0.644,-0.6441,-0.6392,-0.6387,-0.6382,-0.6373,-0.6421,0,0,0,0,0,-0.5874,-0.5906,-0.5979,-0.5998,-0.602,-0.6082,-0.6105,-0.6141,-0.619,-0.621,-0.6258,-0.6304,-0.6343,-0.6367,-0.6406,-0.6431,-0.6447,-0.6437,-0.6432,-0.6427,-0.6427,-0.6443,-0.644,-0.6479,-0.6479,-0.6479,0,0,-0.585,-0.5901,-0.5917,-0.5986,-0.6025,-0.6057,-0.6098,-0.613,-0.6154,-0.6215,-0.6251,-0.6288,-0.6344,-0.6374,-0.639,-0.6404,-0.642,-0.6426,-0.6422,-0.6424,-0.6442,-0.6438,-0.6435,-0.6478,-0.6479,-0.6479,0,0,-0.5823,-0.5864,-0.5885,-0.5924,-0.5983,-0.6025,-0.6029,-0.6098,-0.6125,-0.6163,-0.6209,-0.6239,-0.6304,-0.6342,-0.637,-0.6358,-0.6391,-0.6369,-0.6343,-0.6357,-0.6354,-0.6352,-0.6348,-0.6346,-0.6369,-0.6369,-0.6369,0,-0.5786,-0.5836,-0.5891,-0.5921,-0.595,-0.6007,-0.6028,-0.6063,-0.6131,-0.615,-0.6165,-0.6248,-0.6289,-0.6329,-0.6327,-0.6347,-0.6355,-0.6361,-0.635,-0.6348,-0.6347,-0.6344,-0.6342,-0.6366,-0.6366,-0.6367,-0.6367,0,-0.5787,-0.5821,-0.5831,-0.5896,-0.5926,-0.5951,-0.6011,-0.6035,-0.6068,-0.6109,-0.6147,-0.6199,-0.625,-0.6262,-0.6295,-0.6307,-0.6314,-0.6338,-0.6363,-0.6339,-0.6337,-0.6336,-0.6362,-0.6363,-0.6364,-0.6364,0,0,-0.5719,-0.5815,-0.5818,-0.5848,-0.5918,-0.5945,-0.5974,-0.6024,-0.6043,-0.6089,-0.6114,-0.6168,-0.6192,-0.6223,-0.6261,-0.6274,-0.6262,-0.6298,-0.63,-0.6289,-0.6279,-0.6259,-0.6257,-0.6284,-0.6284,-0.6284,-0.6274,0,-0.5702,-0.5755,-0.5806,-0.5841,-0.5874,-0.5929,-0.5953,-0.5999,-0.6037,-0.6071,-0.6114,-0.6151,-0.6179,-0.6199,-0.6214,-0.626,-0.626,-0.6261,-0.6308,-0.6309,-0.6292,-0.6256,-0.6236,-0.6223,-0.6273,-0.6273,-0.6273,0,-0.5689,-0.5732,-0.577,-0.5838,-0.5853,-0.5874,-0.5925,-0.5956,-0.6009,-0.6036,-0.6072,-0.6112,-0.6145,-0.6166,-0.6213,-0.6212,-0.6235,-0.626,-0.6261,-0.6267,-0.6289,-0.6261,-0.622,-0.6218,-0.6273,-0.6273,-0.6273,0,-0.5635,-0.5703,-0.5735,-0.5759,-0.5839,-0.5852,-0.5886,-0.594,-0.5967,-0.6011,-0.603,-0.6077,-0.6103,-0.6139,-0.6191,-0.6202,-0.6231,-0.6257,-0.6255,-0.6254,-0.6258,-0.6257,-0.6221,-0.6273,-0.6273,-0.6273,-0.6273,0,-0.561,-0.5631,-0.5712,-0.5731,-0.5757,-0.5816,-0.584,-0.5878,-0.5926,-0.5954,-0.6005,-0.603,-0.6097,-0.6131,-0.6172,-0.6204,-0.6215,-0.6238,-0.6249,-0.6234,-0.6231,-0.6249,-0.6251,-0.6273,-0.6273,-0.6273,-0.6273,0,-0.5554,-0.5609,-0.5647,-0.5719,-0.5738,-0.5754,-0.5816,-0.5837,-0.5879,-0.5914,-0.5926,-0.5991,-0.6034,-0.609,-0.6149,-0.6177,-0.6204,-0.622,-0.6185,-0.6192,-0.6186,-0.6186,-0.616,-0.616,-0.6212,-0.6211,-0.6211,0,-0.5534,-0.5552,-0.5626,-0.5649,-0.5681,-0.5716,-0.5745,-0.5804,-0.5831,-0.5894,-0.5907,-0.5953,-0.5993,-0.6058,-0.6112,-0.6158,-0.6176,-0.6164,-0.6183,-0.6167,-0.6176,-0.6174,-0.6176,-0.6158,-0.6158,-0.6157,-0.6156,0,-0.5493,-0.552,-0.5559,-0.5607,-0.5639,-0.568,-0.5724,-0.5739,-0.5808,-0.5836,-0.588,-0.5911,-0.5972,-0.6017,-0.6071,-0.6106,-0.6142,-0.615,-0.6152,-0.6136,-0.6115,-0.6126,-0.6172,-0.615,-0.6151,-0.6151,-0.6151,-0.6152,-0.5455,-0.5474,-0.5529,-0.557,-0.5609,-0.5649,-0.5672,-0.5718,-0.5755,-0.581,-0.5843,-0.5885,-0.5939,-0.6014,-0.6048,-0.6082,-0.6097,-0.6099,-0.61,-0.61,-0.6095,-0.611,-0.6092,-0.6093,-0.6093,-0.6093,-0.6093,0,-0.5417,-0.5455,-0.5493,-0.5552,-0.5585,-0.5617,-0.5667,-0.5693,-0.5729,-0.5776,-0.5815,-0.5866,-0.591,-0.5967,-0.6016,-0.6032,-0.6051,-0.6043,-0.6042,-0.605,-0.6079,-0.6073,-0.6028,-0.6028,-0.6028,-0.6028,-0.6028,-0.6028,-0.5401,-0.5434,-0.5467,-0.552,-0.5559,-0.5601,-0.5627,-0.5663,-0.5701,-0.5756,-0.5793,-0.583,-0.5882,-0.5934,-0.5977,-0.5993,-0.6008,-0.5995,-0.6016,-0.6042,-0.6048,-0.6053,-0.6048,-0.5998,-0.5998,-0.5984,-0.5984,-0.5984]},{"header":{"parameterUnit":"m.s-1","parameterCategory":1,"la1":30.2991,"la2":30.254,"lo1":-89.0895,"lo2":-89.0444,"dy":0.0017,"dx":0.0017,"nx":28,"ny":28,"refTime":"2023-10-08T09:00:00:Z","depth":0,"parameterNumber":3,"parameterNumberName":"V-component_of_WINDS"},"data":[0,0,0,0,0,0,0,0,0,0,0,0,0,0,0,0,0,0,0,0,0,0,0,0,0,0,0,0,0,0,0,0,0,0,0,0,0,0,0,0,0,0,0,0,0,0,0,0,0,0,0,0,0,0,0,0,0,0,-1.1149,-1.1149,0,-1.1149,-1.1149,-1.1149,-1.1125,-1.1124,-1.1123,-1.1123,-1.1125,-1.1125,-1.1126,0,0,0,0,0,0,0,0,0,0,0,0,0,-1.1131,-1.1131,-1.1149,-1.1149,-1.1149,-1.1149,-1.1149,-1.1149,-1.1125,-1.1124,-1.1123,-1.1122,-1.1125,-1.1125,-1.1126,0,0,0,0,0,0,0,0,0,0,0,0,0,-1.1136,-1.1131,-1.1149,-1.1137,-1.1136,-1.1149,-1.1149,-1.1149,-1.1125,-1.1124,-1.1123,-1.1122,-1.1124,-1.1125,-1.1126,-1.1151,0,0,-1.1129,-1.113,0,0,0,0,0,0,0,0,-1.1135,-1.1136,-1.1139,-1.1138,-1.1137,-1.1136,-1.1143,-1.115,-1.1125,-1.1129,-1.1123,-1.1122,-1.1129,-1.113,-1.1132,-1.1151,-1.1152,-1.1129,-1.113,-1.113,-1.1131,0,0,0,0,0,0,0,-1.1135,-1.1136,-1.1149,-1.1139,-1.1138,-1.1132,-1.1132,-1.1144,-1.1135,-1.1129,-1.1127,-1.1127,-1.1129,-1.1131,-1.1132,-1.1152,-1.1129,-1.113,-1.1131,-1.1131,-1.1192,-1.1193,0,0,0,0,0,0,-1.1136,-1.1136,-1.1149,-1.1149,-1.1133,-1.1133,-1.1133,-1.1137,-1.1134,-1.1133,-1.1128,-1.1126,-1.113,-1.1131,-1.1132,-1.1161,-1.113,-1.1131,-1.1132,-1.1191,-1.1192,-1.1193,0,0,0,0,0,0,-1.1136,-1.1137,-1.1149,-1.1142,-1.1143,-1.1135,-1.114,-1.1138,-1.114,-1.1134,-1.1132,-1.1132,-1.1129,-1.113,-1.1146,-1.1161,-1.1132,-1.1132,-1.1189,-1.1191,-1.1192,-1.122,0,0,0,0,0,0,-1.1135,-1.1137,-1.1146,-1.1142,-1.1144,-1.1163,-1.114,-1.1138,-1.1141,-1.1139,-1.1137,-1.1136,-1.1129,-1.1145,-1.1147,-1.1162,-1.1133,-1.1188,-1.119,-1.1192,-1.1218,-1.1222,-1.1226,0,0,0,0,0,-1.1135,-1.1155,-1.1147,-1.1149,-1.1154,-1.1164,-1.1165,-1.1155,-1.1143,-1.1152,-1.1148,-1.1136,-1.1159,-1.1147,-1.1149,-1.1164,-1.1187,-1.119,-1.1192,-1.1216,-1.1221,-1.1226,0,0,0,0,0,0,-1.1161,-1.1154,-1.1145,-1.1164,-1.1165,-1.116,-1.1171,-1.1161,-1.1166,-1.1163,-1.1151,-1.1151,-1.1169,-1.1168,-1.1155,-1.1188,-1.1171,-1.1174,-1.1188,-1.1193,-1.1197,-1.1197,-1.1134,0,0,0,0,0,-1.1169,-1.1177,-1.117,-1.1188,-1.1189,-1.118,-1.1184,-1.1176,-1.1176,-1.1177,-1.1174,-1.1176,-1.1183,-1.1188,-1.1195,-1.1217,-1.1217,-1.1228,-1.1233,-1.1236,-1.1239,-1.1251,-1.1256,-1.1201,-1.1201,-1.1201,0,0,-1.1186,-1.1183,-1.1189,-1.1193,-1.1193,-1.1202,-1.118,-1.1191,-1.1197,-1.1179,-1.1193,-1.1191,-1.1192,-1.1212,-1.122,-1.1211,-1.1254,-1.1239,-1.1242,-1.1243,-1.1254,-1.1259,-1.1264,-1.1202,-1.1202,-1.1202,0,0,-1.1221,-1.122,-1.1234,-1.1234,-1.1233,-1.1227,-1.1231,-1.1227,-1.1225,-1.1239,-1.1225,-1.1233,-1.1246,-1.1247,-1.125,-1.1285,-1.1275,-1.1288,-1.131,-1.1321,-1.1326,-1.133,-1.1343,-1.1347,-1.129,-1.1291,-1.1291,0,-1.1243,-1.1255,-1.1243,-1.1254,-1.1256,-1.1239,-1.1254,-1.1254,-1.1256,-1.1259,-1.1248,-1.1264,-1.1264,-1.1283,-1.1292,-1.1294,-1.1298,-1.1288,-1.1326,-1.133,-1.1333,-1.1345,-1.135,-1.1292,-1.1292,-1.1292,-1.1292,0,-1.1281,-1.129,-1.1301,-1.1303,-1.1306,-1.1319,-1.131,-1.1315,-1.1307,-1.1303,-1.1318,-1.1316,-1.1322,-1.1326,-1.1319,-1.1345,-1.1339,-1.1328,-1.131,-1.134,-1.1351,-1.1356,-1.1294,-1.1294,-1.1293,-1.1293,0,0,-1.1333,-1.1327,-1.1332,-1.1332,-1.133,-1.1337,-1.1349,-1.1354,-1.1359,-1.1361,-1.1371,-1.1382,-1.1371,-1.1374,-1.1367,-1.1377,-1.1405,-1.1364,-1.1364,-1.1372,-1.1434,-1.1443,-1.1449,-1.1398,-1.1399,-1.14,-1.1434,0,-1.1367,-1.1387,-1.1377,-1.1398,-1.1406,-1.139,-1.14,-1.1401,-1.1397,-1.1403,-1.1399,-1.1407,-1.1393,-1.1394,-1.1404,-1.14,-1.1418,-1.1397,-1.1408,-1.1409,-1.1409,-1.1454,-1.1464,-1.1496,-1.1439,-1.1439,-1.144,0,-1.141,-1.1412,-1.1434,-1.1431,-1.1434,-1.1443,-1.1447,-1.1453,-1.1453,-1.145,-1.1453,-1.1443,-1.1455,-1.1437,-1.1455,-1.1441,-1.1445,-1.1444,-1.1445,-1.1446,-1.1426,-1.1457,-1.1507,-1.1512,-1.1447,-1.1446,-1.1446,0,-1.1446,-1.1455,-1.1469,-1.147,-1.1466,-1.1473,-1.1472,-1.1471,-1.1474,-1.1478,-1.148,-1.1485,-1.1488,-1.1493,-1.1485,-1.1473,-1.1504,-1.1485,-1.1502,-1.1502,-1.1509,-1.1509,-1.156,-1.1511,-1.1511,-1.1511,-1.1511,0,-1.1485,-1.1499,-1.1485,-1.1494,-1.151,-1.1498,-1.1514,-1.1511,-1.151,-1.1519,-1.1505,-1.1514,-1.1502,-1.151,-1.1504,-1.1519,-1.1521,-1.1519,-1.1517,-1.152,-1.152,-1.1523,-1.152,-1.1512,-1.1512,-1.1512,-1.1512,0,-1.1528,-1.1519,-1.1534,-1.1528,-1.1527,-1.1539,-1.1535,-1.1543,-1.1538,-1.1549,-1.1551,-1.1543,-1.1552,-1.1544,-1.1552,-1.1548,-1.1568,-1.1563,-1.1568,-1.1567,-1.1584,-1.1582,-1.1639,-1.1646,-1.1592,-1.1593,-1.1593,0,-1.1554,-1.1564,-1.1559,-1.1564,-1.1563,-1.157,-1.1574,-1.1563,-1.1567,-1.1567,-1.1576,-1.1583,-1.1588,-1.1602,-1.1597,-1.1603,-1.1599,-1.1618,-1.16,-1.1602,-1.1599,-1.1599,-1.16,-1.1622,-1.1623,-1.1623,-1.1623,0,-1.16,-1.1595,-1.16,-1.1604,-1.1608,-1.161,-1.1612,-1.1616,-1.1605,-1.161,-1.1618,-1.1622,-1.163,-1.1637,-1.1642,-1.1641,-1.1631,-1.1629,-1.1633,-1.1637,-1.1639,-1.1638,-1.1579,-1.1628,-1.1628,-1.1627,-1.1627,-1.1627,-1.1635,-1.1644,-1.1642,-1.1648,-1.1648,-1.1649,-1.1657,-1.1652,-1.1658,-1.1663,-1.1656,-1.1666,-1.1666,-1.1671,-1.1672,-1.168,-1.1672,-1.1678,-1.1679,-1.1681,-1.1684,-1.1638,-1.1681,-1.1681,-1.168,-1.168,-1.168,0,-1.1681,-1.1679,-1.1685,-1.1687,-1.1692,-1.168,-1.1682,-1.1687,-1.1695,-1.1695,-1.17,-1.1709,-1.1716,-1.1712,-1.1718,-1.1726,-1.1721,-1.1728,-1.1727,-1.1727,-1.169,-1.1686,-1.1731,-1.1731,-1.1731,-1.1731,-1.1731,-1.1731,-1.1706,-1.172,-1.1715,-1.1728,-1.1726,-1.1735,-1.1736,-1.1738,-1.1738,-1.1749,-1.1754,-1.1751,-1.175,-1.1756,-1.1762,-1.1761,-1.1764,-1.1772,-1.1769,-1.1735,-1.173,-1.1725,-1.1721,-1.1773,-1.1773,-1.1805,-1.1806,-1.1806]}]]